Time,TemperatureF,DewpointF,PressureIn,WindDirection,WindDirectionDegrees,WindSpeedMPH,WindSpeedGustMPH,Humidity,HourlyPrecipIn,Conditions,Clouds,dailyrainin,SoftwareType,DateUTC
2013-04-05 00:03:00,42.0,16.0,-100.00,North,0,3.0,7.0,34,0.00,,,-99.99,,2013-04-05 04:03:00,
2013-04-05 00:12:00,42.0,16.0,-100.00,North,5,3.0,7.0,34,0.00,,,-99.99,,2013-04-05 04:12:00,
2013-04-05 00:23:00,42.0,15.0,-100.00,North,0,3.0,6.0,33,0.00,,,-99.99,,2013-04-05 04:23:00,
2013-04-05 00:33:00,41.0,15.0,-100.00,North,5,3.0,6.0,33,0.00,,,-99.99,,2013-04-05 04:33:00,
2013-04-05 00:42:00,41.0,15.0,-100.00,North,10,3.0,6.0,33,0.00,,,-99.99,,2013-04-05 04:42:00,
2013-04-05 00:52:00,42.0,15.0,-100.00,North,5,4.0,6.0,33,0.00,,,-99.99,,2013-04-05 04:52:00,
2013-04-05 01:02:00,42.0,15.0,-100.00,North,10,6.0,8.0,33,0.00,,,-99.99,,2013-04-05 05:02:00,
2013-04-05 01:13:00,42.0,15.0,-100.00,North,10,6.0,8.0,33,0.00,,,-99.99,,2013-04-05 05:13:00,
2013-04-05 01:22:00,41.0,15.0,-100.00,North,10,3.0,6.0,33,0.00,,,-99.99,,2013-04-05 05:22:00,
2013-04-05 01:32:00,41.0,15.0,-100.00,North,5,2.0,6.0,33,0.00,,,-99.99,,2013-04-05 05:32:00,
2013-04-05 01:42:00,41.0,14.0,-100.00,North,0,3.0,4.0,34,0.00,,,-99.99,,2013-04-05 05:42:00,
2013-04-05 01:53:00,40.0,14.0,-100.00,North,10,3.0,6.0,34,0.00,,,-99.99,,2013-04-05 05:53:00,
2013-04-05 02:02:00,40.0,14.0,-100.00,North,10,4.0,6.0,34,0.00,,,-99.99,,2013-04-05 06:02:00,
2013-04-05 02:12:00,40.0,14.0,-100.00,North,10,4.0,6.0,34,0.00,,,-99.99,,2013-04-05 06:12:00,
2013-04-05 02:22:00,40.0,14.0,-100.00,North,10,4.0,7.0,34,0.00,,,-99.99,,2013-04-05 06:22:00,
2013-04-05 02:32:00,40.0,14.0,-100.00,NNE,15,6.0,7.0,34,0.00,,,-99.99,,2013-04-05 06:32:00,
2013-04-05 02:42:00,40.0,14.0,-100.00,North,10,3.0,6.0,34,0.00,,,-99.99,,2013-04-05 06:42:00,
2013-04-05 02:52:00,40.0,14.0,-100.00,NNE,15,4.0,6.0,34,0.00,,,-99.99,,2013-04-05 06:52:00,
2013-04-05 03:03:00,40.0,14.0,-100.00,NNE,15,5.0,6.0,34,0.00,,,-99.99,,2013-04-05 07:03:00,
2013-04-05 03:12:00,40.0,14.0,-100.00,NNE,15,5.0,7.0,34,0.00,,,-99.99,,2013-04-05 07:12:00,
2013-04-05 03:22:00,40.0,14.0,-100.00,NNE,20,4.0,7.0,34,0.00,,,-99.99,,2013-04-05 07:22:00,
2013-04-05 03:32:00,40.0,15.0,-100.00,NNE,30,7.0,9.0,34,0.00,,,-99.99,,2013-04-05 07:32:00,
2013-04-05 03:42:00,40.0,15.0,-100.00,NNE,30,7.0,9.0,34,0.00,,,-99.99,,2013-04-05 07:42:00,
2013-04-05 03:52:00,40.0,15.0,-100.00,NNE,30,7.0,9.0,34,0.00,,,-99.99,,2013-04-05 07:52:00,
2013-04-05 04:03:00,41.0,15.0,-100.00,NE,40,6.0,12.0,34,0.00,,,-99.99,,2013-04-05 08:03:00,
2013-04-05 04:13:00,40.0,15.0,-100.00,NE,45,6.0,8.0,34,0.00,,,-99.99,,2013-04-05 08:13:00,
2013-04-05 04:23:00,40.0,15.0,-100.00,NE,45,5.0,7.0,35,0.00,,,-99.99,,2013-04-05 08:23:00,
2013-04-05 04:33:00,41.0,16.0,-100.00,NE,50,7.0,9.0,35,0.00,,,-99.99,,2013-04-05 08:33:00,
2013-04-05 04:43:00,42.0,17.0,-100.00,ENE,70,12.0,18.0,36,0.00,,,-99.99,,2013-04-05 08:43:00,
2013-04-05 04:52:00,41.0,18.0,-100.00,ENE,70,12.0,18.0,39,0.00,,,-99.99,,2013-04-05 08:52:00,
2013-04-05 05:02:00,40.0,19.0,-100.00,East,80,13.0,18.0,43,0.00,,,-99.99,,2013-04-05 09:02:00,
2013-04-05 05:12:00,39.0,21.0,-100.00,East,80,9.0,14.0,47,0.00,,,-99.99,,2013-04-05 09:12:00,
2013-04-05 05:22:00,39.0,22.0,-100.00,East,90,9.0,12.0,51,0.00,,,-99.99,,2013-04-05 09:22:00,
2013-04-05 05:33:00,38.0,24.0,-100.00,East,100,7.0,12.0,55,0.00,,,-99.99,,2013-04-05 09:33:00,
2013-04-05 05:43:00,38.0,25.0,-100.00,East,95,6.0,8.0,59,0.00,,,-99.99,,2013-04-05 09:43:00,
2013-04-05 05:52:00,39.0,27.0,-100.00,ESE,110,5.0,9.0,61,0.00,,,-99.99,,2013-04-05 09:52:00,
2013-04-05 06:03:00,39.0,28.0,-100.00,East,100,5.0,7.0,63,0.00,,,-99.99,,2013-04-05 10:03:00,
2013-04-05 06:13:00,39.0,28.0,-100.00,SE,125,3.0,8.0,65,0.00,,,-99.99,,2013-04-05 10:13:00,
2013-04-05 06:23:00,39.0,29.0,-100.00,ESE,105,4.0,7.0,66,0.00,,,-99.99,,2013-04-05 10:23:00,
2013-04-05 06:33:00,39.0,29.0,-100.00,ESE,115,4.0,9.0,67,0.00,,,-99.99,,2013-04-05 10:33:00,
2013-04-05 06:43:00,38.0,29.0,-100.00,ESE,110,4.0,6.0,67,0.00,,,-99.99,,2013-04-05 10:43:00,
2013-04-05 06:52:00,38.0,28.0,-100.00,ESE,105,4.0,6.0,67,0.00,,,-99.99,,2013-04-05 10:52:00,
2013-04-05 07:03:00,38.0,28.0,-100.00,ESE,110,4.0,7.0,67,0.00,,,-99.99,,2013-04-05 11:03:00,
2013-04-05 07:13:00,38.0,29.0,-100.00,ESE,115,4.0,7.0,68,0.00,,,-99.99,,2013-04-05 11:13:00,
2013-04-05 07:22:00,38.0,29.0,-100.00,East,90,6.0,7.0,69,0.00,,,-99.99,,2013-04-05 11:22:00,
2013-04-05 07:33:00,37.0,29.0,-100.00,East,100,6.0,8.0,71,0.00,,,-99.99,,2013-04-05 11:33:00,
2013-04-05 07:42:00,37.0,29.0,-100.00,East,95,6.0,10.0,72,0.00,,,-99.99,,2013-04-05 11:42:00,
2013-04-05 07:52:00,37.0,29.0,-100.00,East,100,7.0,10.0,73,0.00,,,-99.99,,2013-04-05 11:52:00,
2013-04-05 08:02:00,37.0,30.0,-100.00,East,95,4.0,11.0,75,0.00,,,-99.99,,2013-04-05 12:02:00,
2013-04-05 08:12:00,37.0,30.0,-100.00,ESE,110,5.0,10.0,76,0.00,,,-99.99,,2013-04-05 12:12:00,
2013-04-05 08:22:00,37.0,31.0,-100.00,East,100,4.0,9.0,77,0.00,,,-99.99,,2013-04-05 12:22:00,
2013-04-05 08:32:00,37.0,31.0,-100.00,ESE,105,4.0,7.0,78,0.00,,,-99.99,,2013-04-05 12:32:00,
2013-04-05 08:42:00,38.0,32.0,-100.00,ESE,105,4.0,9.0,78,0.00,,,-99.99,,2013-04-05 12:42:00,
2013-04-05 08:52:00,39.0,33.0,-100.00,East,100,4.0,11.0,78,0.00,,,-99.99,,2013-04-05 12:52:00,
2013-04-05 09:02:00,38.0,32.0,-100.00,ESE,120,6.0,11.0,78,0.00,,,-99.99,,2013-04-05 13:02:00,
2013-04-05 09:12:00,38.0,32.0,-100.00,East,100,6.0,15.0,77,0.00,,,-99.99,,2013-04-05 13:12:00,
2013-04-05 09:23:00,39.0,32.0,-100.00,East,95,7.0,13.0,75,0.00,,,-99.99,,2013-04-05 13:23:00,
2013-04-05 09:32:00,39.0,32.0,-100.00,East,95,11.0,14.0,73,0.00,,,-99.99,,2013-04-05 13:32:00,
2013-04-05 09:42:00,40.0,31.0,-100.00,East,100,7.0,12.0,70,0.00,,,-99.99,,2013-04-05 13:42:00,
2013-04-05 09:52:00,41.0,31.0,-100.00,ESE,105,7.0,13.0,67,0.00,,,-99.99,,2013-04-05 13:52:00,
2013-04-05 10:03:00,41.0,30.0,-100.00,SE,125,8.0,12.0,64,0.00,,,-99.99,,2013-04-05 14:03:00,
2013-04-05 10:12:00,41.0,30.0,-100.00,SE,125,8.0,12.0,64,0.00,,,-99.99,,2013-04-05 14:12:00,
2013-04-05 10:23:00,40.0,29.0,-100.00,ESE,115,6.0,15.0,62,0.00,,,-99.99,,2013-04-05 14:23:00,
2013-04-05 10:37:00,40.0,29.0,-100.00,East,95,9.0,13.0,63,0.00,,,-99.99,,2013-04-05 14:37:00,
2013-04-05 10:43:00,41.0,29.0,-100.00,East,95,7.0,16.0,63,0.00,,,-99.99,,2013-04-05 14:43:00,
2013-04-05 11:02:00,41.0,29.0,-100.00,East,95,7.0,16.0,63,0.00,,,-99.99,,2013-04-05 15:02:00,
2013-04-05 11:13:00,40.0,30.0,-100.00,East,95,11.0,17.0,66,0.00,,,-99.99,,2013-04-05 15:13:00,
2013-04-05 11:23:00,41.0,29.0,-100.00,East,100,9.0,16.0,62,0.00,,,-99.99,,2013-04-05 15:23:00,
2013-04-05 11:33:00,42.0,30.0,-100.00,East,95,11.0,16.0,61,0.00,,,-99.99,,2013-04-05 15:33:00,
2013-04-05 11:43:00,42.0,31.0,-100.00,East,95,9.0,15.0,63,0.00,,,-99.99,,2013-04-05 15:43:00,
2013-04-05 11:53:00,40.0,30.0,-100.00,East,85,10.0,16.0,68,0.00,,,-99.99,,2013-04-05 15:53:00,
2013-04-05 12:03:00,41.0,31.0,-100.00,ENE,75,11.0,16.0,68,0.00,,,-99.99,,2013-04-05 16:03:00,
2013-04-05 12:13:00,41.0,30.0,-100.00,East,85,11.0,16.0,65,0.00,,,-99.99,,2013-04-05 16:13:00,
2013-04-05 12:23:00,41.0,29.0,-100.00,East,95,11.0,16.0,63,0.00,,,-99.99,,2013-04-05 16:23:00,
2013-04-05 12:33:00,41.0,29.0,-100.00,East,100,10.0,16.0,60,0.00,,,-99.99,,2013-04-05 16:33:00,
2013-04-05 12:42:00,42.0,28.0,-100.00,East,95,11.0,16.0,56,0.00,,,-99.99,,2013-04-05 16:42:00,
2013-04-05 12:52:00,42.0,27.0,-100.00,East,100,11.0,17.0,54,0.00,,,-99.99,,2013-04-05 16:52:00,
2013-04-05 13:03:00,41.0,27.0,-100.00,East,95,11.0,18.0,56,0.00,,,-99.99,,2013-04-05 17:03:00,
2013-04-05 13:13:00,42.0,28.0,-100.00,East,100,14.0,19.0,57,0.00,,,-99.99,,2013-04-05 17:13:00,
2013-04-05 13:23:00,41.0,28.0,-100.00,ENE,70,12.0,17.0,58,0.00,,,-99.99,,2013-04-05 17:23:00,
2013-04-05 13:33:00,41.0,28.0,-100.00,ENE,70,12.0,17.0,58,0.00,,,-99.99,,2013-04-05 17:33:00,
2013-04-05 13:45:00,42.0,28.0,-100.00,East,90,12.0,19.0,58,0.00,,,-99.99,,2013-04-05 17:45:00,
2013-04-05 13:52:00,42.0,29.0,-100.00,East,95,11.0,17.0,58,0.00,,,-99.99,,2013-04-05 17:52:00,
2013-04-05 14:02:00,42.0,29.0,-100.00,East,100,14.0,19.0,60,0.00,,,-99.99,,2013-04-05 18:02:00,
2013-04-05 14:13:00,42.0,30.0,-100.00,East,85,12.0,21.0,61,0.00,,,-99.99,,2013-04-05 18:13:00,
2013-04-05 14:23:00,42.0,30.0,-100.00,East,95,12.0,20.0,62,0.00,,,-99.99,,2013-04-05 18:23:00,
2013-04-05 14:33:00,42.0,31.0,-100.00,ENE,75,12.0,19.0,63,0.00,,,-99.99,,2013-04-05 18:33:00,
2013-04-05 14:43:00,40.0,29.0,-100.00,ENE,75,13.0,21.0,63,0.00,,,-99.99,,2013-04-05 18:43:00,
2013-04-05 14:52:00,41.0,28.0,-100.00,East,90,12.0,22.0,60,0.00,,,-99.99,,2013-04-05 18:52:00,
2013-04-05 15:02:00,41.0,28.0,-100.00,East,80,12.0,21.0,60,0.00,,,-99.99,,2013-04-05 19:02:00,
2013-04-05 15:13:00,42.0,28.0,-100.00,East,95,13.0,21.0,56,0.00,,,-99.99,,2013-04-05 19:13:00,
2013-04-05 15:23:00,41.0,27.0,-100.00,East,80,13.0,21.0,56,0.00,,,-99.99,,2013-04-05 19:23:00,
2013-04-05 15:33:00,41.0,27.0,-100.00,East,80,15.0,23.0,57,0.00,,,-99.99,,2013-04-05 19:33:00,
2013-04-05 15:42:00,41.0,27.0,-100.00,East,80,15.0,23.0,57,0.00,,,-99.99,,2013-04-05 19:42:00,
2013-04-05 15:52:00,41.0,27.0,-100.00,East,80,13.0,18.0,57,0.00,,,-99.99,,2013-04-05 19:52:00,
2013-04-05 16:02:00,41.0,27.0,-100.00,ENE,75,16.0,20.0,57,0.00,,,-99.99,,2013-04-05 20:02:00,
2013-04-05 16:11:00,41.0,27.0,-100.00,ENE,75,16.0,21.0,57,0.00,,,-99.99,,2013-04-05 20:11:00,
2013-04-05 16:22:00,42.0,27.0,-100.00,East,90,13.0,21.0,55,0.00,,,-99.99,,2013-04-05 20:22:00,
2013-04-05 16:33:00,40.0,26.0,-100.00,East,80,15.0,22.0,57,0.00,,,-99.99,,2013-04-05 20:33:00,
2013-04-05 16:42:00,40.0,26.0,-100.00,East,90,14.0,21.0,56,0.00,,,-99.99,,2013-04-05 20:42:00,
2013-04-05 16:52:00,40.0,26.0,-100.00,ENE,70,12.0,17.0,57,0.00,,,-99.99,,2013-04-05 20:52:00,
2013-04-05 17:02:00,40.0,26.0,-100.00,ENE,70,12.0,17.0,57,0.00,,,-99.99,,2013-04-05 21:02:00,
2013-04-05 17:13:00,40.0,27.0,-100.00,East,80,9.0,19.0,57,0.00,,,-99.99,,2013-04-05 21:13:00,
2013-04-05 17:23:00,41.0,26.0,-100.00,East,90,12.0,21.0,54,0.00,,,-99.99,,2013-04-05 21:23:00,
2013-04-05 17:34:00,41.0,26.0,-100.00,East,90,12.0,21.0,54,0.00,,,-99.99,,2013-04-05 21:34:00,
2013-04-05 17:53:00,39.0,26.0,-100.00,East,80,14.0,20.0,57,0.00,,,-99.99,,2013-04-05 21:53:00,
2013-04-05 18:03:00,39.0,26.0,-100.00,East,95,14.0,20.0,58,0.00,,,-99.99,,2013-04-05 22:03:00,
2013-04-05 18:13:00,39.0,26.0,-100.00,East,95,15.0,20.0,57,0.00,,,-99.99,,2013-04-05 22:13:00,
2013-04-05 18:23:00,39.0,26.0,-100.00,East,95,15.0,20.0,57,0.00,,,-99.99,,2013-04-05 22:23:00,
2013-04-05 18:33:00,40.0,26.0,-100.00,East,95,12.0,18.0,57,0.00,,,-99.99,,2013-04-05 22:33:00,
2013-04-05 18:43:00,39.0,25.0,-100.00,East,100,10.0,18.0,55,0.00,,,-99.99,,2013-04-05 22:43:00,
2013-04-05 18:52:00,39.0,25.0,-100.00,East,100,10.0,18.0,55,0.00,,,-99.99,,2013-04-05 22:52:00,
2013-04-05 19:03:00,38.0,24.0,-100.00,East,85,11.0,17.0,57,0.00,,,-99.99,,2013-04-05 23:03:00,
2013-04-05 19:12:00,38.0,24.0,-100.00,East,95,13.0,17.0,57,0.00,,,-99.99,,2013-04-05 23:12:00,
2013-04-05 19:22:00,37.0,24.0,-100.00,East,85,11.0,17.0,59,0.00,,,-99.99,,2013-04-05 23:22:00,
2013-04-05 19:33:00,37.0,24.0,-100.00,East,95,12.0,18.0,59,0.00,,,-99.99,,2013-04-05 23:33:00,
2013-04-05 19:42:00,36.0,24.0,-100.00,East,95,10.0,16.0,61,0.00,,,-99.99,,2013-04-05 23:42:00,
2013-04-05 19:52:00,35.0,23.0,-100.00,East,100,12.0,16.0,61,0.00,,,-99.99,,2013-04-05 23:52:00,
2013-04-05 20:03:00,34.0,23.0,-100.00,East,95,14.0,17.0,62,0.00,,,-99.99,,2013-04-06 00:03:00,
2013-04-05 20:13:00,34.0,23.0,-100.00,East,95,9.0,18.0,63,0.00,,,-99.99,,2013-04-06 00:13:00,
2013-04-05 20:23:00,33.0,23.0,-100.00,East,100,7.0,12.0,65,0.00,,,-99.99,,2013-04-06 00:23:00,
2013-04-05 20:33:00,33.0,22.0,-100.00,East,100,11.0,14.0,65,0.00,,,-99.99,,2013-04-06 00:33:00,
2013-04-05 20:42:00,33.0,22.0,-100.00,East,100,11.0,18.0,64,0.00,,,-99.99,,2013-04-06 00:42:00,
2013-04-05 20:52:00,32.0,21.0,-100.00,East,100,10.0,15.0,63,0.00,,,-99.99,,2013-04-06 00:52:00,
2013-04-05 21:02:00,32.0,21.0,-100.00,East,90,9.0,15.0,63,0.00,,,-99.99,,2013-04-06 01:02:00,
2013-04-05 21:13:00,31.0,21.0,-100.00,East,95,8.0,11.0,64,0.00,,,-99.99,,2013-04-06 01:13:00,
2013-04-05 21:22:00,31.0,21.0,-100.00,East,95,8.0,11.0,64,0.00,,,-99.99,,2013-04-06 01:22:00,
2013-04-05 21:33:00,31.0,20.0,-100.00,East,100,6.0,11.0,63,0.00,,,-99.99,,2013-04-06 01:33:00,
2013-04-05 21:43:00,31.0,20.0,-100.00,East,95,10.0,12.0,63,0.00,,,-99.99,,2013-04-06 01:43:00,
2013-04-05 21:52:00,31.0,20.0,-100.00,East,95,7.0,14.0,64,0.00,,,-99.99,,2013-04-06 01:52:00,
2013-04-05 22:02:00,31.0,20.0,-100.00,ESE,110,6.0,12.0,64,0.00,,,-99.99,,2013-04-06 02:02:00,
2013-04-05 22:12:00,31.0,20.0,-100.00,East,95,9.0,12.0,64,0.00,,,-99.99,,2013-04-06 02:12:00,
2013-04-05 22:22:00,31.0,20.0,-100.00,East,95,9.0,14.0,64,0.00,,,-99.99,,2013-04-06 02:22:00,
2013-04-05 22:33:00,31.0,20.0,-100.00,East,95,9.0,14.0,64,0.00,,,-99.99,,2013-04-06 02:33:00,
2013-04-05 22:42:00,30.0,19.0,-100.00,ESE,110,6.0,9.0,62,0.00,,,-99.99,,2013-04-06 02:42:00,
2013-04-05 22:52:00,30.0,18.0,-100.00,East,95,6.0,9.0,59,0.00,,,-99.99,,2013-04-06 02:52:00,
2013-04-05 23:03:00,30.0,18.0,-100.00,East,85,5.0,7.0,60,0.00,,,-99.99,,2013-04-06 03:03:00,
2013-04-05 23:13:00,29.0,18.0,-100.00,East,95,4.0,7.0,61,0.00,,,-99.99,,2013-04-06 03:13:00,
2013-04-05 23:22:00,29.0,18.0,-100.00,ESE,105,4.0,6.0,62,0.00,,,-99.99,,2013-04-06 03:22:00,
2013-04-05 23:34:00,29.0,18.0,-100.00,ESE,105,4.0,7.0,61,0.00,,,-99.99,,2013-04-06 03:34:00,
2013-04-05 23:43:00,29.0,17.0,-100.00,East,100,4.0,7.0,59,0.00,,,-99.99,,2013-04-06 03:43:00,
2013-04-05 23:53:00,30.0,17.0,-100.00,East,100,3.0,7.0,57,0.00,,,-99.99,,2013-04-06 03:53:00,